When you browse on this site, cookies collect data to enhance your experience and personalize the content and advertising you see.
Visit our Privacy Policy to learn more. By continuing to use the site, you agree to this use of cookies and data.
  • In Sweden
  • List of Countries
  • For 7 days
  • Water Temperature
  • Weather Map
  • Weather Widgets
  • user-avatar
    Login

    Hourly Weather Collierville

    Today, 3 June, Wednesday

    Time Temperature Precipitation Wind Pressure Humidity
    00:00 +24°C° 0 mm 2 mps 752 mmHg 85%
    01:00 +24°C° 0 mm 1 mps 752 mmHg 85%
    02:00 +24°C° 0 mm 1 mps 752 mmHg 85%
    03:00 +24°C° 0 mm 1 mps 752 mmHg 84%
    04:00 +24°C° 0.1 mm 1 mps 752 mmHg 85%
    05:00 +24°C° 0.1 mm 1 mps 752 mmHg 86%
    06:00 +25°C° 0 mm 1 mps 752 mmHg 87%
    07:00 +26°C° 0 mm 1 mps 752 mmHg 79%
    08:00 +28°C° 0 mm 2 mps 752 mmHg 71%
    09:00 +30°C° 0 mm 2 mps 752 mmHg 63%
    10:00 +30°C° 0.4 mm 2 mps 751 mmHg 61%
    11:00 +31°C° 0.4 mm 2 mps 751 mmHg 60%
    12:00 +32°C° 0.4 mm 2 mps 750 mmHg 58%
    13:00 +32°C° 1 mm 2 mps 750 mmHg 59%
    14:00 +31°C° 1 mm 3 mps 749 mmHg 60%
    15:00 +31°C° 1 mm 3 mps 749 mmHg 61%
    16:00 +31°C° 0.5 mm 3 mps 749 mmHg 65%
    17:00 +30°C° 0.5 mm 2 mps 749 mmHg 69%
    18:00 +29°C° 0.5 mm 2 mps 748 mmHg 73%
    19:00 +28°C° 0.3 mm 2 mps 748 mmHg 76%
    20:00 +27°C° 0.3 mm 1 mps 748 mmHg 79%
    21:00 +25°C° 0.3 mm 1 mps 748 mmHg 81%
    22:00 +25°C° 0.5 mm 1 mps 748 mmHg 83%
    23:00 +24°C° 0.5 mm 1 mps 748 mmHg 85%

    Tomorrow, 4 June, Thursday

    Time Temperature Precipitation Wind Pressure Humidity
    00:00 +24°C° 0.5 mm 1 mps 749 mmHg 87%
    01:00 +24°C° 2.1 mm 2 mps 748 mmHg 90%
    02:00 +23°C° 2.1 mm 2 mps 748 mmHg 92%
    03:00 +22°C° 2.1 mm 3 mps 748 mmHg 94%
    04:00 +22°C° 0.2 mm 3 mps 748 mmHg 94%
    05:00 +22°C° 0.2 mm 4 mps 748 mmHg 94%
    06:00 +23°C° 0.2 mm 4 mps 749 mmHg 94%
    07:00 +25°C° 0.5 mm 4 mps 749 mmHg 89%
    08:00 +27°C° 0.5 mm 4 mps 749 mmHg 84%
    09:00 +28°C° 0.5 mm 3 mps 749 mmHg 79%
    10:00 +29°C° 0.6 mm 3 mps 749 mmHg 74%
    11:00 +30°C° 0.6 mm 3 mps 749 mmHg 69%
    12:00 +33°C° 0.6 mm 3 mps 748 mmHg 63%
    13:00 +33°C° 0.6 mm 3 mps 748 mmHg 64%
    14:00 +33°C° 0.6 mm 4 mps 748 mmHg 65%
    15:00 +33°C° 0.6 mm 4 mps 747 mmHg 65%
    16:00 +31°C° 0.4 mm 3 mps 747 mmHg 70%
    17:00 +30°C° 0.4 mm 3 mps 747 mmHg 74%
    18:00 +29°C° 0.4 mm 2 mps 747 mmHg 78%
    19:00 +28°C° 0.1 mm 2 mps 747 mmHg 81%
    20:00 +27°C° 0.1 mm 2 mps 748 mmHg 85%
    21:00 +26°C° 0.1 mm 3 mps 748 mmHg 88%
    22:00 +25°C° 0 mm 3 mps 748 mmHg 89%
    23:00 +25°C° 0 mm 3 mps 748 mmHg 90%

    Day after tomorrow, 5 June, Friday

    Time Temperature Precipitation Wind Pressure Humidity
    00:00 +24°C° 0 mm 3 mps 748 mmHg 91%
    01:00 +24°C° 0 mm 3 mps 748 mmHg 92%
    02:00 +24°C° 0 mm 3 mps 748 mmHg 93%
    03:00 +24°C° 0 mm 3 mps 749 mmHg 94%
    04:00 +24°C° 1.4 mm 2 mps 749 mmHg 94%
    05:00 +24°C° 1.4 mm 2 mps 749 mmHg 94%
    06:00 +24°C° 1.4 mm 2 mps 750 mmHg 94%
    07:00 +25°C° 0.4 mm 2 mps 750 mmHg 92%
    08:00 +27°C° 0.4 mm 3 mps 750 mmHg 89%
    09:00 +28°C° 0.4 mm 3 mps 750 mmHg 86%
    10:00 +30°C° 0.3 mm 3 mps 750 mmHg 80%
    11:00 +31°C° 0.3 mm 3 mps 749 mmHg 73%
    12:00 +34°C° 0.3 mm 3 mps 749 mmHg 67%
    13:00 +34°C° 0.5 mm 3 mps 749 mmHg 66%
    14:00 +34°C° 0.5 mm 3 mps 749 mmHg 65%
    15:00 +34°C° 0.5 mm 3 mps 748 mmHg 65%
    16:00 +34°C° 0.3 mm 2 mps 748 mmHg 68%
    17:00 +32°C° 0.3 mm 2 mps 748 mmHg 71%
    18:00 +31°C° 0.3 mm 1 mps 748 mmHg 75%
    19:00 +30°C° 0.1 mm 1 mps 748 mmHg 78%
    20:00 +29°C° 0.1 mm 2 mps 748 mmHg 81%
    21:00 +27°C° 0.1 mm 2 mps 749 mmHg 84%
    22:00 +27°C° 0.1 mm 2 mps 749 mmHg 86%
    23:00 +26°C° 0.1 mm 2 mps 749 mmHg 89%

    6 June, Saturday

    Time Temperature Precipitation Wind Pressure Humidity
    00:00 +26°C° 0.1 mm 2 mps 749 mmHg 91%
    01:00 +25°C° 0.5 mm 2 mps 749 mmHg 92%
    02:00 +25°C° 0.5 mm 1 mps 749 mmHg 93%
    03:00 +25°C° 0.5 mm 1 mps 749 mmHg 93%
    04:00 +25°C° 0.1 mm 1 mps 749 mmHg 93%
    05:00 +25°C° 0.1 mm 1 mps 749 mmHg 93%
    06:00 +25°C° 0.1 mm 1 mps 750 mmHg 93%
    07:00 +27°C° 0 mm 1 mps 750 mmHg 88%
    08:00 +29°C° 0 mm 1 mps 750 mmHg 82%
    09:00 +30°C° 0 mm 1 mps 750 mmHg 76%
    10:00 +32°C° 0 mm 1 mps 750 mmHg 70%
    11:00 +34°C° 0 mm 2 mps 750 mmHg 64%
    12:00 +35°C° 0 mm 2 mps 749 mmHg 58%
    13:00 +35°C° 0 mm 3 mps 749 mmHg 58%
    14:00 +35°C° 0 mm 3 mps 748 mmHg 59%
    15:00 +35°C° 0 mm 4 mps 748 mmHg 59%
    16:00 +34°C° 0 mm 4 mps 748 mmHg 64%
    17:00 +32°C° 0 mm 4 mps 748 mmHg 69%
    18:00 +30°C° 0 mm 4 mps 748 mmHg 74%
    19:00 +29°C° 0 mm 3 mps 748 mmHg 78%
    20:00 +28°C° 0 mm 3 mps 748 mmHg 82%
    21:00 +26°C° 0 mm 3 mps 748 mmHg 87%
    22:00 +26°C° 0 mm 3 mps 748 mmHg 89%
    23:00 +26°C° 0 mm 3 mps 749 mmHg 91%

    7 June, Sunday

    Time Temperature Precipitation Wind Pressure Humidity
    00:00 +25°C° 0 mm 3 mps 749 mmHg 93%
    01:00 +25°C° 0 mm 3 mps 748 mmHg 94%
    02:00 +24°C° 0 mm 3 mps 748 mmHg 95%
    03:00 +24°C° 0 mm 3 mps 748 mmHg 96%
    04:00 +24°C° 0 mm 3 mps 748 mmHg 94%
    05:00 +24°C° 0 mm 3 mps 748 mmHg 93%
    06:00 +23°C° 0 mm 4 mps 749 mmHg 92%
    07:00 +25°C° 0 mm 4 mps 749 mmHg 88%
    08:00 +26°C° 0 mm 4 mps 749 mmHg 85%
    09:00 +27°C° 0 mm 4 mps 749 mmHg 81%
    10:00 +29°C° 0 mm 4 mps 749 mmHg 76%
    11:00 +30°C° 0 mm 4 mps 748 mmHg 72%
    12:00 +33°C° 0 mm 3 mps 748 mmHg 67%
    13:00 +33°C° 0 mm 4 mps 748 mmHg 67%
    14:00 +33°C° 0 mm 4 mps 747 mmHg 66%
    15:00 +33°C° 0 mm 5 mps 747 mmHg 66%
    16:00 +32°C° 0 mm 4 mps 747 mmHg 70%
    17:00 +30°C° 0 mm 4 mps 747 mmHg 74%
    18:00 +29°C° 0 mm 4 mps 747 mmHg 78%
    19:00 +28°C° 0 mm 4 mps 747 mmHg 80%
    20:00 +28°C° 0 mm 4 mps 747 mmHg 81%
    21:00 +27°C° 0 mm 4 mps 747 mmHg 82%
    22:00 +27°C° 0 mm 4 mps 747 mmHg 82%
    23:00 +26°C° 0 mm 4 mps 747 mmHg 83%

    8 June, Monday

    Time Temperature Precipitation Wind Pressure Humidity
    00:00 +26°C° 0 mm 4 mps 747 mmHg 83%
    01:00 +26°C° 0 mm 4 mps 747 mmHg 83%
    02:00 +25°C° 0 mm 4 mps 747 mmHg 84%
    03:00 +25°C° 0 mm 4 mps 747 mmHg 85%
    04:00 +25°C° 0 mm 4 mps 747 mmHg 86%
    05:00 +25°C° 0 mm 4 mps 747 mmHg 87%
    06:00 +25°C° 0 mm 4 mps 747 mmHg 88%
    07:00 +26°C° 0 mm 5 mps 747 mmHg 85%
    08:00 +26°C° 0 mm 6 mps 747 mmHg 83%
    09:00 +27°C° 0 mm 6 mps 747 mmHg 81%
    10:00 +28°C° 0 mm 6 mps 747 mmHg 79%
    11:00 +28°C° 0 mm 6 mps 747 mmHg 76%
    12:00 +29°C° 0 mm 7 mps 747 mmHg 74%
    13:00 +30°C° 0.1 mm 7 mps 746 mmHg 72%
    14:00 +32°C° 0.1 mm 7 mps 746 mmHg 70%
    15:00 +33°C° 0.1 mm 7 mps 745 mmHg 68%
    16:00 +32°C° 0.9 mm 6 mps 745 mmHg 73%
    17:00 +30°C° 0.9 mm 6 mps 745 mmHg 78%
    18:00 +29°C° 0.9 mm 5 mps 745 mmHg 83%
    19:00 +28°C° 0 mm 5 mps 745 mmHg 83%
    20:00 +28°C° 0 mm 5 mps 745 mmHg 84%
    21:00 +27°C° 0 mm 5 mps 746 mmHg 85%
    22:00 +27°C° 0 mm 5 mps 745 mmHg 84%
    23:00 +27°C° 0 mm 5 mps 745 mmHg 84%
    Show more